Regional Weather Roundup
Issued by NWS

Home | Current Version | Previous Version | Graphics & Text | Print | Product List | Glossary On
Versions: 1 2 3 4 5 6 7 8 9 10 11 12 13 14 15 16 17 18 19 20 21 22 23 24 25 26 27 28 29 30 31 32 33 34 35 36 37 38 39 40 41 42 43 44 45 46 47 48 49 50
000
ASUS43 KLOT 270507
RWRIL

ILLINOIS REGIONAL WEATHER ROUNDUP
NATIONAL WEATHER SERVICE CHICAGO/ROMEOVILLE IL
1200 AM CDT THU APR 27 2017

NOTE: "FAIR" INDICATES FEW OR NO CLOUDS BELOW 12,000 FEET WITH NO
SIGNIFICANT WEATHER AND/OR OBSTRUCTIONS TO VISIBILITY.

* THESE STATIONS ARE NOT UNDER NWS QUALITY CONTROL. THEY ALSO MAY NOT
  REPORT WEATHER SUCH AS PRECIPITATION OR FOG.

ILZ001-002-007-009-015-016-024-270600-
NORTHWEST ILLINOIS

CITY           SKY/WX    TMP DP  RH WIND       PRES   REMARKS
MOLINE         LGT RAIN  46  43  89 NW13      29.47F FOG
STERLING*      RAIN      49  48  97 NW9       29.45F
SAVANNA*       RAIN      46  45  95 N6        29.45F
$$

ILZ003-004-008-010-011-017-018-270600-
NORTH CENTRAL ILLINOIS

CITY           SKY/WX    TMP DP  RH WIND       PRES   REMARKS
ROCKFORD       LGT RAIN  51  49  92 N8        29.44F FOG
FREEPORT*      CLOUDY    47  46  94 NW10      29.47S
ROCHELLE*      DRIZZLE   50  50  99 N6        29.43F
DE KALB*       RAIN      51  51  97 N6        29.43F
PERU*          RAIN      51  49  95 NW7       29.44F
$$

ILZ005-006-012>014-019>023-270600-
NORTHEAST ILLINOIS

CITY           SKY/WX    TMP DP  RH WIND       PRES   REMARKS
CHICAGO-OHARE  RAIN      60  58  92 CALM      29.42F FOG
CHICAGO-MIDWAY LGT RAIN  63  61  93 SE7       29.43F FOG
AURORA         LGT RAIN  56  55  97 CALM      29.42F FOG
LANSING*       RAIN      60  60 100 S6        29.46F
JOLIET*        RAIN      62  61  97 SE7       29.43F
WAUKEGAN       LGT RAIN  58  57  97 CALM      29.43F FOG
DUPAGE AIRPORT RAIN      57  57 100 N3        29.41F FOG
KANKAKEE*      LGT RAIN  59  58  97 S5        29.46F
WHEELING       RAIN      59  59 100 CALM      29.44F FOG
MORRIS*        RAIN      57  56  96 CALM      29.41F
ROMEOVILLE*    LGT RAIN  60  60 100 S9        29.43F
NORTHERLY ISL    N/A     58  56  93 E5          N/A
$$

LMZ740>746-270600-
SOUTHERN LAKE MICHIGAN

STATION/POSITION SKY/WX   TEMP    WIND        PRES    VSBY  WAVE
                          AIR SEA DIR/SP/G                  HT/PER
                          (F)     (DEG/KT/KT) (MB)    (MI)  (FT/S)
SOUTHERN BUOY              48 42  180/  6/  6  998.4          1/ 4
HARRISON CRIB              61     170/  7/  8   N/A
BURNHAM HARBOR             57     120/  7       N/A
CALUMET HARBOR             62     150/  5/  8  996.8S
BURNS HARBOR               61     180/  6/ 10  998.3F
MICHIGAN CITY              59     220/  2/  2   N/A
MICHIGAN CITY 6N           58 49                N/A           1
ST. JOSEPH                 53 49  210/  4/  6  998.1          1/ 3
$$

ILZ025>027-034>036-040-047-049-050-058-095>099-270600-
WEST-CENTRAL ILLINOIS

CITY           SKY/WX    TMP DP  RH WIND       PRES   REMARKS
QUINCY         RAIN      46  45  96 NW17      29.51R FOG
GALESBURG*     HVY RAIN  45  45  97 NW12      29.46S
MACOMB*        LGT RAIN  46  46  98 N15       29.49F
JACKSONVILLE*  DRIZZLE   49  48  97 NW13      29.42F
PITTSFIELD*    RAIN      48  47  97 W8        29.50R
$$

ILZ028>032-037-038-041>044-048-051>054-059>061-270600-
CENTRAL ILLINOIS

CITY           SKY/WX    TMP DP  RH WIND       PRES   REMARKS
PONTIAC        LGT RAIN  60  60  98 SE13      29.42F
BLOOMINGTON    LGT RAIN  58  57  97 S20       29.42F
DECATUR        LGT RAIN  60  59  96 S20G26    29.44F
PEORIA         LGT RAIN  51  50  96 N6        29.43F FOG
LACON*         RAIN      50  50 100 NW6       29.43R
LINCOLN*       LGT RAIN  60  60  99 S13       29.43S
SPRINGFIELD    RAIN      61  59  93 SE16G24   29.41F FOG
TAYLORVILLE    LGT RAIN  58  58  97 SE17G24   29.42F
$$

ILZ033-039-045-046-055>057-062-063-270600-
EAST-CENTRAL ILLINOIS

CITY           SKY/WX    TMP DP  RH WIND       PRES   REMARKS
CHAMPAIGN      CLOUDY    60  58  92 S12       29.47F
RANTOUL*       LGT RAIN  61  61  99 S12       29.47F
MATTOON        LGT RAIN  59  59 100 S13       29.50S
PARIS*         DRIZZLE   59  59 100 S7        29.52S
$$

ILZ079-100>102-270600-
SOUTHWEST ILLINOIS

CITY           SKY/WX    TMP DP  RH WIND       PRES   REMARKS
ALTON          RAIN      55  52  90 SW23      29.42S
BELLEVILLE     CLOUDY    59  59 100 E7        29.39F
CAHOKIA*       LGT RAIN  53  49  86 W15G24    29.46R
SPARTA*        CLOUDY    57  57 100 S12G18    29.45S
$$

ILZ064>066-069>071-074>076-080>082-084>086-088>090-092>094-270600-
SOUTH-CENTRAL ILLINOIS

CITY           SKY/WX    TMP DP  RH WIND       PRES   REMARKS
CARBONDALE     LGT RAIN  59  59 100 SE21G33   29.40
CAIRO*         CLOUDY    59  58  98 SE12G21   29.46F
EFFINGHAM*     RAIN      59  59 100 SE8       29.54R
MARION         LGT RAIN  59  59 100 E15       29.44F
MT. VERNON     TSTM      59  58  96 E10G17    29.50F
CENTRALIA*     CLOUDY    60  60 100 E12       29.45F
SALEM*         RAIN      60  58  93 SE9       29.49F
METROPOLIS*    RAIN      59  58  98 SE13G18   29.51F
$$

ILZ067-068-072-073-078-083-087-091-270600-
SOUTHEAST ILLINOIS

CITY           SKY/WX    TMP DP  RH WIND       PRES   REMARKS
LAWRENCEVILLE  RAIN      61  60  97 S9        29.57R
FLORA*         LGT RAIN  60  59  96 SE6       29.54F
FAIRFIELD*     RAIN      59  59 100 SE3       29.55R
HARRISBURG*    CLOUDY    59  59 100 SE10      29.56F
ROBINSON*      RAIN      59  59  98 SW7       29.56R
CARMI*         HVY RAIN  59  59 100 S6        29.58S
$$

ABBREVIATIONS USED IN REMARKS
   TC - TEMPERATURE IN CELSIUS
  WCI - WIND CHILL INDEX
   HX - HEAT INDEX
  VSB - VISIBILITY
$$





USA.gov is the U.S. government's official web portal to all federal, state and local government web resources and services.